KF5JED-13 Weather Reports


Display with metric or nautical units.
time (UTC)temp
F
wind
direction
speed
MPH
gust
MPH
rain 1hr
in
rain 24hr
in
rain mn
in
humidity
%
barometer
mb
20260509211231 91 271 6.0 17.0 0.00 0.00 0.00 17 1008.8
20260509210727 90 267 8.0 14.0 0.00 0.00 0.00 16 1008.8
20260509210225 90 289 10.0 15.0 0.00 0.00 0.00 17 1008.7
20260509205724 91 320 13.0 19.0 0.00 0.00 0.00 18 1008.8
20260509205224 91 297 5.0 11.0 0.00 0.00 0.00 17 1008.7
20260509204721 91 296 8.0 14.0 0.00 0.00 0.00 18 1009.0
20260509204217 90 291 11.0 20.0 0.00 0.00 0.00 18 1009.0
20260509203713 90 296 13.0 19.0 0.00 0.00 0.00 18 1009.1
20260509203211 89 243 10.0 17.0 0.00 0.00 0.00 19 1009.3
20260509202707 89 313 11.0 17.0 0.00 0.00 0.00 18 1009.3
20260509202202 90 299 9.0 13.0 0.00 0.00 0.00 19 1009.4
20260509201657 89 275 7.0 14.0 0.00 0.00 0.00 20 1009.1
20260509201154 89 317 13.0 15.0 0.00 0.00 0.00 19 1009.4
20260509200651 90 233 5.0 11.0 0.00 0.00 0.00 18 1009.2
20260509200145 90 292 9.0 14.0 0.00 0.00 0.00 21 1009.3
20260509195641 89 231 4.0 13.0 0.00 0.00 0.00 20 1009.4
20260509195136 89 210 6.0 13.0 0.00 0.00 0.00 19 1009.6
20260509194631 90 231 6.0 13.0 0.00 0.00 0.00 18 1009.8
20260509194129 89 258 9.0 15.0 0.00 0.00 0.00 20 1009.6
20260509193624 89 233 7.0 11.0 0.00 0.00 0.00 21 1009.7
20260509193120 88 227 13.0 17.0 0.00 0.00 0.00 20 1009.9
20260509192617 89 236 2.0 12.0 0.00 0.00 0.00 20 1010.0
20260509192112 88 225 4.0 15.0 0.00 0.00 0.00 20 1010.2
20260509191607 88 234 13.0 19.0 0.00 0.00 0.00 20 1010.1
20260509191103 88 264 4.0 11.0 0.00 0.00 0.00 23 1010.2
20260509190600 87 286 3.0 13.0 0.00 0.00 0.00 22 1010.1
20260509190058 88 301 9.0 11.0 0.00 0.00 0.00 24 1010.3
20260509185555 86 295 6.0 15.0 0.00 0.00 0.00 23 1010.3
20260509185051 86 227 10.0 13.0 0.00 0.00 0.00 23 1010.3
20260509184550 87 235 4.0 15.0 0.00 0.00 0.00 24 1010.7
20260509184045 86 212 11.0 17.0 0.00 0.00 0.00 24 1010.8
20260509183541 85 268 7.0 15.0 0.00 0.00 0.00 24 1010.7
20260509183036 87 239 10.0 17.0 0.00 0.00 0.00 23 1010.8
20260509182533 86 221 15.0 26.0 0.00 0.00 0.00 23 1010.8
20260509182025 86 205 13.0 22.0 0.00 0.00 0.00 24 1010.9
20260509181523 86 221 11.0 16.0 0.00 0.00 0.00 25 1011.1
20260509181020 86 227 12.0 16.0 0.00 0.00 0.00 25 1011.3
20260509180515 85 212 11.0 17.0 0.00 0.00 0.00 26 1011.3
20260509180014 87 200 16.0 23.0 0.00 0.00 0.00 24 1011.5
20260509175508 84 207 5.0 13.0 0.00 0.00 0.00 27 1011.6
20260509175005 84 228 16.0 25.0 0.00 0.00 0.00 27 1011.7
20260509174502 83 212 12.0 17.0 0.00 0.00 0.00 28 1011.8
20260509173956 86 197 17.0 19.0 0.00 0.00 0.00 26 1011.8
20260509173451 85 218 13.0 19.0 0.00 0.00 0.00 28 1011.9
20260509172948 84 174 10.0 20.0 0.00 0.00 0.00 28 1011.8
20260509172445 83 203 11.0 14.0 0.00 0.00 0.00 30 1012.0
20260509171940 83 198 12.0 20.0 0.00 0.00 0.00 29 1012.2
20260509171437 83 210 10.0 16.0 0.00 0.00 0.00 30 1012.1
20260509170933 84 190 11.0 17.0 0.00 0.00 0.00 29 1012.1
20260509170429 83 200 17.0 24.0 0.00 0.00 0.00 30 1011.9
20260509165925 82 194 7.0 17.0 0.00 0.00 0.00 32 1012.1
20260509165419 82 204 7.0 19.0 0.00 0.00 0.00 33 1012.3
20260509164915 82 172 11.0 20.0 0.00 0.00 0.00 32 1012.3
20260509164411 81 197 15.0 19.0 0.00 0.00 0.00 32 1012.3
20260509163907 82 203 14.0 17.0 0.00 0.00 0.00 32 1012.5
20260509163404 80 213 15.0 20.0 0.00 0.00 0.00 34 1012.6
20260509162903 80 203 8.0 21.0 0.00 0.00 0.00 35 1012.8
20260509162402 80 202 11.0 22.0 0.00 0.00 0.00 35 1012.6
20260509161858 79 161 7.0 17.0 0.00 0.00 0.00 37 1012.8
20260509161354 80 176 12.0 18.0 0.00 0.00 0.00 36 1012.9
20260509160850 79 164 11.0 16.0 0.00 0.00 0.00 36 1012.8
20260509160346 79 164 9.0 20.0 0.00 0.00 0.00 37 1013.0
20260509155841 78 168 11.0 19.0 0.00 0.00 0.00 39 1012.9
20260509155338 77 172 9.0 20.0 0.00 0.00 0.00 38 1013.0
20260509154834 78 164 13.0 19.0 0.00 0.00 0.00 36 1012.9
20260509154331 78 159 14.0 17.0 0.00 0.00 0.00 40 1013.2
20260509153828 77 179 9.0 14.0 0.00 0.00 0.00 42 1013.1
20260509153324 76 152 14.0 15.0 0.00 0.00 0.00 41 1013.1
20260509152822 76 178 14.0 15.0 0.00 0.00 0.00 42 1013.0
20260509152317 75 193 8.0 18.0 0.00 0.00 0.00 46 1013.2
20260509151815 74 159 11.0 11.0 0.00 0.00 0.00 47 1013.3
20260509151311 74 186 9.0 16.0 0.00 0.00 0.00 47 1013.3
20260509150810 74 174 10.0 16.0 0.00 0.00 0.00 46 1013.3
20260509150307 74 187 10.0 14.0 0.00 0.00 0.00 49 1013.2
20260509145804 74 170 9.0 13.0 0.00 0.00 0.00 48 1013.2
20260509145306 74 164 12.0 14.0 0.00 0.00 0.00 51 1013.3
20260509144800 72 119 6.0 10.0 0.00 0.00 0.00 54 1013.5
20260509144257 71 162 9.0 11.0 0.00 0.00 0.00 53 1013.3
20260509143755 71 151 11.0 14.0 0.00 0.00 0.00 53 1013.5
20260509143252 72 155 9.0 13.0 0.00 0.00 0.00 52 1013.5
20260509142748 71 152 12.0 16.0 0.00 0.00 0.00 53 1013.6
20260509142244 71 159 13.0 17.0 0.00 0.00 0.00 52 1013.3
20260509141740 71 165 9.0 13.0 0.00 0.00 0.00 53 1013.6
20260509141237 70 130 5.0 7.0 0.00 0.00 0.00 54 1013.5
20260509140734 70 148 3.0 5.0 0.00 0.00 0.00 54 1013.5
20260509140231 70 95 3.0 4.0 0.00 0.00 0.00 50 1013.6
20260509135728 68 10 2.0 2.0 0.00 0.00 0.00 47 1013.6
20260509135226 66 4 2.0 2.0 0.00 0.00 0.00 47 1013.6
20260509134723 64 63 2.0 3.0 0.00 0.00 0.00 50 1013.7
20260509134221 62 17 2.0 3.0 0.00 0.00 0.00 50 1013.6
20260509133718 62 322 3.0 4.0 0.00 0.00 0.00 48 1013.7
20260509133214 66 19 3.0 4.0 0.00 0.00 0.00 47 1013.3
20260509132713 66 61 2.0 3.0 0.00 0.00 0.00 46 1013.6
20260509132211 64 50 0.0 2.0 0.00 0.00 0.00 49 1013.8
20260509131707 63 85 4.0 4.0 0.00 0.00 0.00 48 1013.3
20260509131204 61 77 1.0 2.0 0.00 0.00 0.00 51 1013.6
20260509130659 62 110 0.0 2.0 0.00 0.00 0.00 49 1013.7
20260509130150 59 142 0.0 0.0 0.00 0.00 0.00 53 1013.6
20260509125646 59 126 0.0 2.0 0.00 0.00 0.00 53 1013.5
20260509125143 58 89 2.0 2.0 0.00 0.00 0.00 54 1013.7
20260509124640 57 60 1.0 2.0 0.00 0.00 0.00 56 1013.3
20260509124137 55 48 2.0 2.0 0.00 0.00 0.00 58 1013.6
20260509123635 55 131 0.0 0.0 0.00 0.00 0.00 58 1013.5
20260509123131 54 102 1.0 2.0 0.00 0.00 0.00 62 1013.5
20260509122627 53 76 0.0 2.0 0.00 0.00 0.00 63 1013.6
20260509122124 51 93 1.0 2.0 0.00 0.00 0.00 66 1013.3
20260509121620 50 103 2.0 2.0 0.00 0.00 0.00 67 1013.3
20260509121119 49 132 2.0 2.0 0.00 0.00 0.00 68 1013.3
20260509120616 49 121 0.0 2.0 0.00 0.00 0.00 67 1013.2
20260509120115 49 117 2.0 4.0 0.00 0.00 0.00 68 1013.2
20260509115611 49 123 1.0 2.0 0.00 0.00 0.00 67 1013.3
20260509115109 49 110 2.0 2.0 0.00 0.00 0.00 68 1013.5
20260509114607 49 108 0.0 1.0 0.00 0.00 0.00 66 1013.3
20260509114106 50 26 0.0 1.0 0.00 0.00 0.00 66 1013.5
20260509113603 49 46 1.0 2.0 0.00 0.00 0.00 67 1013.3
20260509113101 49 66 0.0 1.0 0.00 0.00 0.00 65 1013.6
20260509112557 50 67 1.0 2.0 0.00 0.00 0.00 63 1013.7
20260509112054 51 116 0.0 0.0 0.00 0.00 0.00 63 1013.6
20260509111551 50 157 0.0 1.0 0.00 0.00 0.00 64 1013.5
20260509111048 51 112 2.0 2.0 0.00 0.00 0.00 63 1013.3
20260509110545 51 120 1.0 2.0 0.00 0.00 0.00 62 1013.5
20260509110042 51 110 2.0 2.0 0.00 0.00 0.00 62 1013.3
20260509105540 51 98 2.0 2.0 0.00 0.00 0.00 63 1013.5
20260509105038 51 141 0.0 2.0 0.00 0.00 0.00 63 1013.7
20260509104534 50 49 0.0 2.0 0.00 0.00 0.00 63 1013.7
20260509104031 50 92 0.0 1.0 0.00 0.00 0.00 62 1013.8
20260509103529 51 119 0.0 1.0 0.00 0.00 0.00 61 1013.6
20260509103027 51 106 1.0 2.0 0.00 0.00 0.00 61 1013.8
20260509102525 51 124 0.0 2.0 0.00 0.00 0.00 61 1013.6
20260509102021 51 155 1.0 2.0 0.00 0.00 0.00 61 1013.8
20260509101517 51 126 1.0 1.0 0.00 0.00 0.00 60 1013.6
20260509101014 52 141 0.0 0.0 0.00 0.00 0.00 59 1013.8
20260509100512 53 136 2.0 2.0 0.00 0.00 0.00 57 1013.7
20260509100009 55 150 2.0 2.0 0.00 0.00 0.00 55 1013.7
20260509095505 56 122 3.0 6.0 0.00 0.00 0.00 53 1013.5
20260509095002 57 129 3.0 5.0 0.00 0.00 0.00 53 1013.7
20260509094458 57 116 3.0 5.0 0.00 0.00 0.00 53 1013.8
20260509093956 57 113 4.0 6.0 0.00 0.00 0.00 53 1013.6
20260509093454 58 138 4.0 7.0 0.00 0.00 0.00 52 1013.7
20260509092952 58 119 4.0 9.0 0.00 0.00 0.00 51 1013.5
20260509092449 57 135 5.0 8.0 0.00 0.00 0.00 51 1013.8
20260509091948 57 131 4.0 7.0 0.00 0.00 0.00 51 1013.5
20260509091444 58 96 3.0 6.0 0.00 0.00 0.00 50 1013.3
20260509090942 59 92 4.0 9.0 0.00 0.00 0.00 49 1013.3
20260509090439 59 102 6.0 9.0 0.00 0.00 0.00 49 1013.5
20260509085937 59 102 6.0 7.0 0.00 0.00 0.00 48 1013.6
20260509085433 60 106 4.0 10.0 0.00 0.00 0.00 48 1013.6
20260509084929 60 94 5.0 7.0 0.00 0.00 0.00 48 1013.5
20260509084426 60 115 7.0 9.0 0.00 0.00 0.00 47 1013.2
20260509083924 60 101 4.0 12.0 0.00 0.00 0.00 46 1013.3
20260509083421 61 93 11.0 13.0 0.00 0.00 0.00 46 1013.6
20260509082918 61 110 5.0 12.0 0.00 0.00 0.00 46 1013.3
20260509082415 61 110 10.0 14.0 0.00 0.00 0.00 45 1013.2
20260509081912 61 89 7.0 13.0 0.00 0.00 0.00 45 1013.0
20260509081409 61 99 8.0 14.0 0.00 0.00 0.00 45 1013.0
20260509080907 61 91 9.0 13.0 0.00 0.00 0.00 46 1013.1
20260509080404 60 89 10.0 14.0 0.00 0.00 0.00 46 1013.2
20260509075903 61 103 8.0 11.0 0.00 0.00 0.00 46 1013.3
20260509075359 60 97 10.0 12.0 0.00 0.00 0.00 46 1013.5
20260509074856 60 92 4.0 11.0 0.00 0.00 0.00 47 1013.2
20260509074354 59 84 6.0 8.0 0.00 0.00 0.00 47 1013.5
20260509073850 59 101 8.0 10.0 0.00 0.00 0.00 47 1013.3
20260509073347 59 96 4.0 7.0 0.00 0.00 0.00 47 1013.7
20260509072843 60 88 3.0 9.0 0.00 0.00 0.00 46 1013.6
20260509072340 61 95 8.0 12.0 0.00 0.00 0.00 45 1013.2
20260509071837 62 87 7.0 14.0 0.00 0.00 0.00 44 1013.5
20260509071333 62 89 9.0 13.0 0.00 0.00 0.00 44 1013.7
20260509070831 62 87 8.0 11.0 0.00 0.00 0.00 44 1013.5
20260509070327 62 92 7.0 13.0 0.00 0.00 0.00 44 1013.5
20260509065824 62 102 9.0 13.0 0.00 0.00 0.00 44 1013.5
20260509065320 61 86 6.0 13.0 0.00 0.00 0.00 45 1013.6
20260509064816 61 97 4.0 10.0 0.00 0.00 0.00 45 1013.3
20260509064314 61 88 7.0 12.0 0.00 0.00 0.00 45 1013.2
20260509063811 62 86 9.0 15.0 0.00 0.00 0.00 44 1012.9
20260509063307 61 85 7.0 11.0 0.00 0.00 0.00 44 1012.9
20260509062804 61 98 9.0 11.0 0.00 0.00 0.00 44 1012.9
20260509062305 62 83 6.0 11.0 0.00 0.00 0.00 43 1012.8
20260509061758 63 80 6.0 10.0 0.00 0.00 0.00 42 1012.9
20260509061256 64 92 10.0 11.0 0.00 0.00 0.00 41 1013.0
20260509060753 63 70 10.0 14.0 0.00 0.00 0.00 41 1012.6
20260509060250 63 59 9.0 10.0 0.00 0.00 0.00 41 1012.8
20260509055746 64 75 8.0 11.0 0.00 0.00 0.00 41 1013.0
20260509055241 63 63 9.0 11.0 0.00 0.00 0.00 41 1012.9
20260509054738 63 73 8.0 12.0 0.00 0.00 0.00 41 1013.1
20260509054235 62 91 4.0 9.0 0.00 0.00 0.00 42 1013.0
20260509053734 62 89 8.0 9.0 0.00 0.00 0.00 41 1012.9
20260509053230 63 77 6.0 9.0 0.00 0.00 0.00 41 1013.1
20260509052728 62 77 6.0 8.0 0.00 0.00 0.00 41 1013.2
20260509052226 63 91 6.0 10.0 0.00 0.00 0.00 40 1013.2
20260509051723 63 91 6.0 8.0 0.00 0.00 0.00 40 1013.5
20260509051221 63 97 6.0 8.0 0.00 0.00 0.00 40 1013.5
20260509050717 63 92 7.0 9.0 0.00 0.00 0.00 40 1013.3
20260509050214 64 86 7.0 9.0 0.00 0.00 0.00 40 1013.2
20260509045711 65 96 4.0 8.0 0.00 0.00 0.00 39 1013.1
20260509045208 65 86 6.0 10.0 0.00 0.00 0.00 38 1013.2
20260509044706 64 91 5.0 8.0 0.00 0.00 0.00 39 1013.3
20260509044203 64 105 6.0 6.0 0.00 0.00 0.00 39 1013.2
20260509043659 64 84 8.0 9.0 0.00 0.00 0.00 40 1013.1
20260509043155 63 106 6.0 7.0 0.00 0.00 0.00 39 1013.3
20260509042651 63 94 2.0 3.0 0.00 0.00 0.00 40 1013.3
20260509042148 64 95 1.0 4.0 0.00 0.00 0.00 40 1013.2
20260509041644 65 88 4.0 5.0 0.00 0.00 0.00 38 1013.1
20260509041142 65 94 4.0 5.0 0.00 0.00 0.00 38 1013.2
20260509040640 66 89 4.0 6.0 0.00 0.00 0.00 38 1013.2
20260509040137 66 91 4.0 6.0 0.00 0.00 0.00 37 1013.1
20260509035634 67 91 5.0 7.0 0.00 0.00 0.00 37 1013.1
20260509035130 66 85 6.0 7.0 0.00 0.00 0.00 37 1013.0
20260509034628 66 87 6.0 6.0 0.00 0.00 0.00 37 1013.2
20260509034125 67 98 7.0 7.0 0.00 0.00 0.00 36 1013.1
20260509033622 66 92 5.0 8.0 0.00 0.00 0.00 36 1013.1
20260509033119 65 126 5.0 7.0 0.00 0.00 0.00 37 1013.0
20260509032616 66 138 4.0 7.0 0.00 0.00 0.00 35 1012.9
20260509032113 68 97 6.0 8.0 0.00 0.00 0.00 35 1012.8
20260509031611 68 80 5.0 8.0 0.00 0.00 0.00 36 1012.7
20260509031108 67 84 4.0 7.0 0.00 0.00 0.00 36 1012.6
20260509030606 65 117 3.0 4.0 0.00 0.00 0.00 37 1012.9
20260509025559 68 129 5.0 6.0 0.00 0.00 0.00 34 1012.7
20260509025054 69 78 5.0 6.0 0.00 0.00 0.00 34 1012.6
20260509024550 69 76 6.0 7.0 0.00 0.00 0.00 34 1012.5
20260509024046 70 77 5.0 7.0 0.00 0.00 0.00 33 1012.6
20260509023545 71 66 6.0 10.0 0.00 0.00 0.00 32 1012.5
20260509023041 71 74 6.0 9.0 0.00 0.00 0.00 32 1012.6
20260509022538 71 77 6.0 7.0 0.00 0.00 0.00 32 1012.3
20260509022036 71 80 4.0 7.0 0.00 0.00 0.00 32 1012.1
20260509021532 71 82 5.0 8.0 0.00 0.00 0.00 32 1012.2
20260509021029 71 91 4.0 6.0 0.00 0.00 0.00 32 1012.3
20260509020528 71 86 4.0 7.0 0.00 0.00 0.00 31 1012.2
20260509020024 72 85 5.0 8.0 0.00 0.00 0.00 31 1012.2
20260509015523 73 77 4.0 9.0 0.00 0.00 0.00 31 1012.0
20260509015020 73 69 6.0 7.0 0.00 0.00 0.00 30 1012.0
20260509014517 73 46 4.0 7.0 0.00 0.00 0.00 30 1011.9
20260509014013 74 61 5.0 6.0 0.00 0.00 0.00 29 1011.9
20260509013510 75 42 3.0 6.0 0.00 0.00 0.00 28 1011.9
20260509013005 75 50 6.0 9.0 0.00 0.00 0.00 29 1011.9
20260509012502 76 68 8.0 8.0 0.00 0.00 0.00 28 1011.9
20260509011959 76 43 4.0 8.0 0.00 0.00 0.00 27 1011.8
20260509011457 77 53 5.0 9.0 0.00 0.00 0.00 27 1011.7
20260509010954 77 42 6.0 13.0 0.00 0.00 0.00 26 1011.7
20260509010452 78 23 5.0 10.0 0.00 0.00 0.00 26 1011.7
20260509005948 78 17 6.0 11.0 0.00 0.00 0.00 25 1011.6
20260509005446 78 31 5.0 10.0 0.00 0.00 0.00 25 1011.6
20260509004940 79 22 6.0 8.0 0.00 0.00 0.00 25 1011.5
20260509004437 79 7 7.0 10.0 0.00 0.00 0.00 25 1011.7
20260509003935 79 21 6.0 11.0 0.00 0.00 0.00 25 1011.3
20260509003433 79 9 8.0 13.0 0.00 0.00 0.00 25 1011.3
20260509002930 79 8 8.0 13.0 0.00 0.00 0.00 25 1011.5
20260509002428 80 11 7.0 10.0 0.00 0.00 0.00 25 1011.2
20260509001924 80 20 8.0 13.0 0.00 0.00 0.00 25 1011.5
20260509001421 80 42 10.0 14.0 0.00 0.00 0.00 24 1011.3
20260509000918 80 16 10.0 14.0 0.00 0.00 0.00 24 1011.3
20260509000418 80 18 7.0 10.0 0.00 0.00 0.00 24 1011.2
20260508235911 80 9 10.0 19.0 0.00 0.00 0.00 24 1011.2
20260508235409 80 0 13.0 17.0 0.00 0.00 0.00 24 1011.2
20260508234906 80 24 8.0 17.0 0.00 0.00 0.00 24 1011.2
20260508234403 80 1 12.0 17.0 0.00 0.00 0.00 24 1011.2
20260508233901 80 6 15.0 21.0 0.00 0.00 0.00 24 1011.2
20260508233400 81 3 9.0 14.0 0.00 0.00 0.00 24 1011.1
20260508232856 81 6 14.0 20.0 0.00 0.00 0.00 24 1011.0
20260508232353 81 21 10.0 19.0 0.00 0.00 0.00 24 1011.1
20260508231851 81 354 6.0 13.0 0.00 0.00 0.00 24 1011.2
20260508231347 82 355 10.0 17.0 0.00 0.00 0.00 23 1011.2
20260508230844 82 8 9.0 11.0 0.00 0.00 0.00 24 1011.1
20260508230340 81 51 4.0 12.0 0.00 0.00 0.00 24 1011.2
20260508225838 82 22 7.0 11.0 0.00 0.00 0.00 23 1011.1
20260508225334 82 21 7.0 11.0 0.00 0.00 0.00 23 1011.1
20260508224833 82 11 10.0 13.0 0.00 0.00 0.00 23 1011.1
20260508224330 82 358 15.0 19.0 0.00 0.00 0.00 23 1011.0
20260508223827 81 36 10.0 16.0 0.00 0.00 0.00 24 1011.0
20260508223324 82 10 12.0 16.0 0.00 0.00 0.00 23 1011.1
20260508222822 82 36 4.0 10.0 0.00 0.00 0.00 24 1011.1
20260508222319 82 11 7.0 15.0 0.00 0.00 0.00 24 1011.0
20260508221815 81 24 5.0 13.0 0.00 0.00 0.00 24 1010.9
20260508221311 82 5 15.0 20.0 0.00 0.00 0.00 24 1011.0
20260508220807 82 356 9.0 15.0 0.00 0.00 0.00 23 1011.1
20260508220304 82 14 12.0 22.0 0.00 0.00 0.00 24 1011.1
20260508215801 82 355 18.0 19.0 0.00 0.00 0.00 23 1010.8
20260508215257 82 22 10.0 17.0 0.00 0.00 0.00 23 1010.9
20260508214754 82 11 12.0 17.0 0.00 0.00 0.00 24 1011.0
20260508214251 82 23 11.0 15.0 0.00 0.00 0.00 23 1010.9
20260508213748 82 14 11.0 17.0 0.00 0.00 0.00 22 1010.9
20260508213244 83 23 12.0 17.0 0.00 0.00 0.00 22 1011.0
20260508212735 82 28 9.0 15.0 0.00 0.00 0.00 21 1010.8
20260508212232 82 12 16.0 21.0 0.00 0.00 0.00 22 1010.9
20260508211727 83 2 9.0 22.0 0.00 0.00 0.00 21 1010.9